Sacramento International, CA

2:34 AM PDT on March 28, 2017 (GMT -0700)
Sacramento International

Weather History for KSMF - September, 2013

Change the Weather History Date:

Monday, September 30, 2013

  Actual Average Record
Temperature  
Mean Temperature 70 °F -  
Max Temperature 80 °F 86 °F 101 °F (1991)
Min Temperature 62 °F 55 °F 43 °F (1971)
Cooling Degree Days 5    
Growing Degree Days 20 (Base 50)    
Moisture  
Dew Point 60 °F    
Average Humidity 76    
Maximum Humidity 94    
Minimum Humidity 54    
Precipitation  
Precipitation 0.00 in - - ()
Sea Level Pressure  
Sea Level Pressure 30.00 in    
Wind  
Wind Speed 8 mph (South)    
Max Wind Speed 14 mph    
Max Gust Speed 20 mph    
Visibility 10 miles    
Events      
Averages and records for this station are not official NWS values.
T = Trace of Precipitation, MM = Missing Value Source: NWS Daily Summary

Daily Weather History Graph

Daily Weather History Graph

Search for Another Location

Airport or City:

Trip Planner

Search our weather history database for the weather conditions in past years. The results will help you decide how hot, cold, wet, or windy it might be!

Date:

Astronomy

Sep. 30, 2013 Rise Set
Actual Time 7:01 AM PDT 6:50 PM PDT
Civil Twilight 6:35 AM PDT 7:16 PM PDT
Nautical Twilight 6:04 AM PDT 7:47 PM PDT
Astronomical Twilight 5:33 AM PDT 8:18 PM PDT
Moon 2:46 AM PDT (9/30) 4:21 PM PDT (9/30)
Length of Visible Light 12h 41m
Length of Day
11h 48m
Waning Crescent, 18% of the Moon is Illuminated
Sep 30
Waning Crescent
Oct 4
New
Oct 11
First Quarter
Oct 18
Full
Oct 26
Last Quarter

Hourly Weather History & Observations

Time (PDT) Temp. Dew Point Humidity Pressure Visibility Wind Dir Wind Speed Gust Speed Precip Events Conditions
12:53 AM 63.0 °F 59.0 °F 87% 30.04 in 10.0 mi South 4.6 mph - N/A   Clear
1:53 AM 62.1 °F 59.0 °F 90% 30.04 in 10.0 mi Variable 4.6 mph - N/A   Clear
2:53 AM 63.0 °F 60.1 °F 90% 30.04 in 10.0 mi SSE 9.2 mph - N/A   Scattered Clouds
3:53 AM 63.0 °F 60.1 °F 90% 30.03 in 10.0 mi SSE 9.2 mph - N/A   Partly Cloudy
4:53 AM 64.0 °F 61.0 °F 90% 30.02 in 10.0 mi South 9.2 mph - N/A   Scattered Clouds
5:53 AM 63.0 °F 61.0 °F 93% 30.02 in 10.0 mi South 9.2 mph - N/A   Mostly Cloudy
6:53 AM 64.0 °F 60.1 °F 87% 30.03 in 10.0 mi South 12.7 mph - N/A   Overcast
7:21 AM 62.6 °F 60.8 °F 94% 30.03 in 10.0 mi SSE 10.4 mph - N/A   Mostly Cloudy
7:53 AM 64.0 °F 60.1 °F 87% 30.03 in 10.0 mi South 11.5 mph - N/A   Mostly Cloudy
8:53 AM 64.9 °F 60.1 °F 84% 30.04 in 10.0 mi South 10.4 mph - N/A   Mostly Cloudy
9:53 AM 68.0 °F 61.0 °F 78% 30.05 in 10.0 mi South 9.2 mph - N/A   Scattered Clouds
10:37 AM 69.8 °F 60.8 °F 73% 30.05 in 10.0 mi South 10.4 mph - N/A   Mostly Cloudy
10:53 AM 71.1 °F 61.0 °F 70% 30.05 in 10.0 mi South 11.5 mph - N/A   Mostly Cloudy
11:53 AM 73.0 °F 60.1 °F 64% 30.04 in 10.0 mi SSW 12.7 mph - N/A   Mostly Cloudy
12:53 PM 75.0 °F 60.1 °F 60% 30.02 in 10.0 mi SSW 12.7 mph - N/A   Mostly Cloudy
1:53 PM 75.0 °F 59.0 °F 57% 30.00 in 10.0 mi SSW 10.4 mph 19.6 mph N/A   Mostly Cloudy
2:53 PM 78.1 °F 60.1 °F 54% 29.98 in 10.0 mi SSW 13.8 mph 19.6 mph N/A   Mostly Cloudy
3:53 PM 78.1 °F 60.1 °F 54% 29.97 in 10.0 mi SSW 13.8 mph - N/A   Mostly Cloudy
4:53 PM 78.1 °F 60.1 °F 54% 29.95 in 10.0 mi SW 12.7 mph - N/A   Partly Cloudy
5:53 PM 75.9 °F 59.0 °F 56% 29.94 in 10.0 mi SW 9.2 mph - N/A   Partly Cloudy
6:53 PM 73.9 °F 59.0 °F 59% 29.93 in 10.0 mi South 5.8 mph - N/A   Clear
7:53 PM 71.1 °F 60.1 °F 68% 29.92 in 10.0 mi South 5.8 mph - N/A   Clear
8:53 PM 66.9 °F 60.1 °F 79% 29.94 in 10.0 mi South 4.6 mph - N/A   Clear
9:53 PM 64.9 °F 59.0 °F 81% 29.94 in 10.0 mi SSW 4.6 mph - N/A   Clear
10:53 PM 64.0 °F 59.0 °F 84% 29.94 in 10.0 mi South 4.6 mph - N/A   Clear
11:53 PM 62.1 °F 57.9 °F 86% 29.93 in 10.0 mi South 4.6 mph - N/A   Clear